Hourly Data Report for October 03, 2016

All times are specified in Local Standard Time (LST). Add 1 hour to adjust for Daylight Saving Time where and when it is observed.

BAKER LAKE A
NUNAVUT

64°17'56.000" N
96°04'40.000" W
18.60 m
2300503
71926
YBK

Download Data

Hourly Data (October 2016)
Hourly Data Report for October 3, 2016
Temp Definition
°C
Dew Point Temp Definition
°C
Rel Hum Definition
%
Wind Dir Definition
10's deg

Wind Spd Definition
km/h
Visibility Definition
km
Stn Press Definition
kPa
Hmdx Definition


Wind Chill Definition


Weather Definition


TIME
00:00 Legend Double Dagger 0.5 0.1 97 12 34 1.2 101.00     Snow
01:00 Legend Double Dagger 0.8 0.2 96 10 39 1.2 100.81     Snow
02:00 Legend Double Dagger 1.2 0.5 95 11 36 8.1 100.61     Snow
03:00 Legend Double Dagger 1.7 0.8 94 11 41 9.7 100.40     Snow
04:00 Legend Double Dagger 1.8 0.9 94 11 44 9.7 100.15     Snow
05:00 Legend Double Dagger 1.9 0.9 93 11 43 9.7 99.94     Snow
06:00 Legend Double Dagger 2.0 1.3 95 11 39 8.1 99.71     Snow
07:00 Legend Double Dagger 2.3 1.7 96 11 37 8.1 99.53     Snow
08:00 Legend Double Dagger 2.4 2.0 97 12 34 3.2 99.37     Drizzle,Fog
09:00 Legend Double Dagger 2.7 2.3 97 12 30 4.8 99.19     Rain,Fog
10:00 Legend Double Dagger 2.6 2.2 97 15 23 1.2 99.08     Drizzle,Fog
11:00 Legend Double Dagger 2.9 2.5 97 18 17 1.2 98.97     Drizzle,Fog
12:00 Legend Double Dagger 2.8 2.4 97 19 22 1.2 98.90     Drizzle,Fog
13:00 Legend Double Dagger 2.9 2.3 96 21 23 4.8 98.83     Drizzle,Fog
14:00 Legend Double Dagger 3.0 2.1 94 23 16 4.8 98.80     Rain,Fog
15:00 Legend Double Dagger 2.5 1.8 95 25 12 4.0 98.78     Rain,Drizzle,Fog
16:00 Legend Double Dagger 2.0 1.1 94 34 18 12.9 98.81     Rain
17:00 Legend Double Dagger 1.4 0.5 94 34 34 6.4 98.89     Drizzle,Snow,Ice Pellet Showers,Fog
18:00 Legend Double Dagger 1.1 0.1 93 33 46 6.4 99.04     Drizzle,Fog
19:00 Legend Double Dagger 0.6 -0.9 90 33 49 24.1 99.23     Snow
20:00 Legend Double Dagger 0.0 -1.9 87 33 54 16.1 99.41   -8 Snow
21:00 Legend Double Dagger -0.4 -2.6 85 33 53 24.1 99.60   -9 Snow
22:00 Legend Double Dagger -0.8 -3.5 82 33 58 24.1 99.78   -10 Snow
23:00 Legend Double Dagger -0.8 -3.2 84 32 52 24.1 99.95   -9 Snow

Notes on Data Quality.

Legend

  • E = Estimated
  • M = Missing
  • NA = Not Available
  • ‡ = Partner data that is not subject to review by the National Climate Archives
Date modified: